Showing default

DSAT, 42794

Orbit data source: Space-Track

DSAT, 42794 is a payload satellite owned by D-ORBIT (IT) in SSO that was launched on Fri, 23 Jun 2017 UTC via a PSLV-XL launch vehicle from the Sirharikota (SRI). Payload-class satellites include a variety of spacecraft equipped with specific instruments for various scientific and technological missions. These include communications satellites like Starlink; space stations such as the ISS; scientific satellites like the Hubble; Earth observation satellites from companies like Planet Labs, Umbra, and HawkEye 360; GPS; miniature CubeSats for education and research; and military/defense satellites.

Loading next visibility...
Identifier
42794, 2017-036AF
Orbit
SSO
Country
Flag of ITIT
Related business
Manufacturer
D-ORBIT
Mission
Non-operational Commercial Technology
Bus & Motor
CUBESAT 3U, Unknown motor
Mass
4.5 kg wet, 4.2 kg dry
Launch date (UTC)
2017-06-23 (9 years ago)
Launch vehicle
PSLV-XL
Launch site
Sirharikota (SRI)
Object type
Payload
Rocket body
Debris
Shape & HBR
Box, 0.2 m
Radar Cross Section
0.035 m², Medium (>0.1 m² and < 1m²)

Expand to show TLE details & history
Last TLE update: 19 hours ago

TLE from 19 hours ago
0 DSAT
1 42794U 17036AF  26256.45009745  .00004076  00000-0  18772-3 0  9993
2 42794  97.5661 235.2435 0078704 214.2958 145.3181 15.18126406504245
Epoch: 2026-09-13T10:48Z
TLE epoch observation values (Epoch: 2026-09-13T10:48:08.419Z)
Latitude
0.00001°
Longitude
80.76384°
Altitude
559.323 km
Speed
7.557 km/s
True Right ascension
15h 40m 58s
True Declination
0° 00' 00"
Sunlit
Object was in daylight at epoch
Visualization orbit readout
Latitude
Unknown
Longitude
Unknown
Altitude
Unknown
Speed
Unknown
Apparent Right ascension
Unknown
Apparent Declination
Unknown
Sunlit
N/A
Visualization observer readout
Local Sidereal Time
21:53:09
Azimuth
Unknown
Elevation
Unknown
Doppler factor
Unknown
Orbital elements
Apogee altitude
562.679 km
Perigee altitude
454.278 km
Semi-major axis
6,886.615 km
Eccentricity
0.00787
Inclination
97.5661°
RAAN
235.2435°
Arg. of periapsis
214.2958°
True anomaly
145.82716°
Mean anomaly
145.3181°
Eccentric anomaly
145.57304°
Mean motion
3.79782 °/min
Orbital period
94.79 mins
BSTAR
0.00018772
Loading maneuver chart data...
Computing Atmospheric mass density...

Documentation

Showing up to 5 results
|